Location: Azul
(36.7830°S, 59.8500°W)
Time: 19:24:46
(UTC-03:00)

ZACube-1 - Pass Details

Date: 29 October 2021
Orbit: 584 x 664 km, 97.6° (Epoch: 07 December)

Event Time Altitude Azimuth Distance (km) Brightness Sun altitude
Rises 05:16:41 0° 351° (N) 2,928 ? -8.4°
Reaches altitude 10° 05:19:02 10° 340° (NNW) 2,041 ? -8.0°
Maximum altitude 05:23:02 32° 276° (W) 1,120 ? -7.2°
Drops below altitude 10° 05:27:11 10° 212° (SSW) 2,102 ? -6.5°
Sets 05:29:39 0° 202° (SSW) 3,030 ? -6.0°
